Regional Weather Roundup
Issued by NWS Grand Forks, ND

Home | Current Version | Previous Version | Graphics & Text | Print | Product List | Glossary On
Versions: 1 2 3 4 5 6 7 8 9 10 11 12 13 14 15 16 17 18 19 20 21 22 23 24 25 26 27 28 29 30 31 32 33 34 35 36 37 38 39 40 41 42 43 44 45 46 47 48 49 50
000
ASUS43 KFGF 020010
RWRFGF
PRAIRIE TO PINES  WEATHER ROUNDUP
NATIONAL WEATHER SERVICE EASTERN NORTH DAKOTA/GRAND FORKS ND
700 PM CDT FRI AUG 01 2014

 **SATELLITE DATA USED TO AUGMENT SKY COVER AT AUTOMATED STATIONS**
 *****  WEATHER ACROSS EASTERN NORTH DAKOTA  *****

CITY           SKY/WX    TMP DP  RH WIND       PRES   REMARKS
GRAND FORKS    MOSUNNY   81  59  47 E5        30.05F
6HR MIN TEMP:  80; 6HR MAX TEMP:  83;

GRAND FRKS AFB MOSUNNY   80  60  50 E5        30.07S
GRAND FRKS NWS   N/A     79 N/A N/A E2          N/A
DEVILS LAKE    PTSUNNY   81  54  39 SE7       30.06F
6HR MIN TEMP:  79; 6HR MAX TEMP:  81;

FARGO          MOSUNNY   81  54  39 N8        30.05F
WAHPETON ARPT  CLEAR     81  50  34 NE7       30.06S
$$

 ***** WEATHER ACROSS CENTRAL AND WESTERN NORTH DAKOTA  *****

CITY           SKY/WX    TMP DP  RH WIND       PRES   REMARKS
BISMARCK       PTSUNNY   83  59  44 NE13      30.03F HAZE
6HR MIN TEMP:  83; 6HR MAX TEMP:  92; 6HR PCP: TRACE;

MINOT          PTSUNNY   82  58  43 NE5       30.07S
6HR MIN TEMP:  78; 6HR MAX TEMP:  82;

JAMESTOWN      MOSUNNY   80  58  46 E5        30.06F
6HR MIN TEMP:  80; 6HR MAX TEMP:  83;

MINOT AFB      PTSUNNY   81  60  49 E3        30.06S
GARRISON         N/A     80  65  59 N5        30.07F
WILLISTON      SUNNY     85  55  35 S8        30.06F
6HR MIN TEMP:  75; 6HR MAX TEMP:  86;

DICKINSON      SUNNY     81  59  47 NE18      30.06S
6HR MIN TEMP:  78; 6HR MAX TEMP:  86;

HETTINGER      SUNNY     87  57  35 E16G22    30.04S
6HR MIN TEMP:  79; 6HR MAX TEMP:  89;

$$

 *****  OTHER AIRPORT OBSERVATIONS IN OUR AREA  *****

CITY           SKY/WX    TMP DP  RH WIND       PRES   REMARKS
WALHALLA       FAIR      79  64  61 S3          N/A
GRAFTON AIRPOR FAIR      81  59  47 CALM      30.05S
VALLEY CITY AR FAIR      79  57  47 E6        30.08S
CANDO          FAIR      77  61  57 S3        30.08S
CAVALIER APRT  FAIR      81  59  47 CALM      30.05S
GWINNER        CLEAR     82  61  47 CALM      30.08S
ROLLA            N/A     73  63  68 S6        30.10F
 ***** THE ABOVE OBSERVATIONS ARE NON NWS ARE NOT QUALITY
       CONTROLLED AND MAY MIS-REPORT RAIN FOR SNOW...
$$

  *****  WEATHER ACROSS NORTHERN MINNESOTA  *****

CITY           SKY/WX    TMP DP  RH WIND       PRES   REMARKS
FLAG ISLAND    SUNNY     75  52  43 S3        30.05S
WARROAD        SUNNY     77  61  57 E3        30.07S
ROSEAU         SUNNY     79  61  53 CALM      30.06S
HALLOCK        SUNNY     81  59  47 CALM      30.04F
THF RVR FALLS  SUNNY     79  54  41 NE6       30.07F
6HR MIN TEMP:  77; 6HR MAX TEMP:  81;

BAUDETTE       SUNNY     74  52  46 NW3       30.08S
6HR MIN TEMP:  74; 6HR MAX TEMP:  79;

WASKISH        SUNNY     77  52  41 CALM      30.07S
CROOKSTON      MOSUNNY   79  61  53 NW3       30.07S
$$
  *****  WEATHER ACROSS CENTRAL AND WEST MINNESOTA  *****

CITY           SKY/WX    TMP DP  RH WIND       PRES   REMARKS
FOSSTON        SUNNY     75  63  64 CALM      30.09S HAZE
BEMIDJI        SUNNY     76  56  49 N5        30.07S
PARK RAPIDS    SUNNY     79  54  41 N9        30.07S
6HR MIN TEMP:  79; 6HR MAX TEMP:  82;

ELBOW LAKE     FAIR      78  61  55 N6        30.06S
6HR MIN TEMP:  76; 6HR MAX TEMP:  80;

WADENA         SUNNY     77  61  57 N3        30.07S
DETROIT LAKES  MOSUNNY   77  55  47 CALM      30.09S
MOORHEAD       MOSUNNY   79  61  53 N6        30.06F
FERGUS FALLS   MOSUNNY   77  57  50 CALM      30.06R
MORRIS MN      MOSUNNY   79  64  61 N3        30.06F
STAPLES        SUNNY     79  57  47 W6        30.06S
$$
  *****  WEATHER ELSEWHERE ACROSS MINNESOTA  *****

CITY           SKY/WX    TMP DP  RH WIND       PRES   REMARKS
DULUTH         MOSUNNY   72  55  55 SE7       30.07S
6HR MIN TEMP:  67; 6HR MAX TEMP:  77; 6HR PCP:  0.01;

INTRNTL FALLS  SUNNY     77  47  34 E3        30.06S
6HR MIN TEMP:  75; 6HR MAX TEMP:  79;

ELY            SUNNY     75  46  35 NW3       30.07S
CLOQUET        MOSUNNY   72  55  56 E6        30.07F
WHEATON        MOSUNNY   79  61  53 W3        30.07S
BRAINERD       SUNNY     78  58  49 CALM      30.06S
6HR MIN TEMP:  68; 6HR MAX TEMP:  80; 6HR PCP:  0.01;

HIBBING        SUNNY     79  57  46 N3        30.06R
6HR MIN TEMP:  76; 6HR MAX TEMP:  82;

ALEXANDRIA     SUNNY     79  60  52 NW7       30.08S
6HR MIN TEMP:  76; 6HR MAX TEMP:  82; 6HR PCP: TRACE;

SAINT CLOUD    MOSUNNY   81  56  42 CALM      30.05S
6HR MIN TEMP:  78; 6HR MAX TEMP:  89;

MINNEAPOLIS    PTSUNNY   84  59  42 W10       30.03S
6HR MIN TEMP:  81; 6HR MAX TEMP:  87;

$$

  *****  WEATHER ACROSS SOUTH DAKOTA  *****

CITY           SKY/WX    TMP DP  RH WIND       PRES   REMARKS
SIOUX FALLS    MOSUNNY   78  58  49 SE8       30.08S
6HR MIN TEMP:  78; 6HR MAX TEMP:  84;

BROOKINGS      NOT AVBL
WATERTOWN      PTSUNNY   78  58  49 S7        30.08S
6HR MIN TEMP:  78; 6HR MAX TEMP:  83;

HURON          MOSUNNY   83  57  41 SE9       30.04S
6HR MIN TEMP:  81; 6HR MAX TEMP:  86;

SISSETON         N/A     82  64  54 NE5       30.05S
ABERDEEN       SUNNY     82  56  40 NE6       30.05F
6HR MIN TEMP:  81; 6HR MAX TEMP:  87;

MITCHELL       SUNNY     81  58  45 SE7       30.06F
PIERRE         SUNNY     89  56  32 E21       29.96F
6HR MIN TEMP:  87; 6HR MAX TEMP:  93;

MOBRIDGE       PTSUNNY   86  58  38 SE15      29.98F
RAPID CITY     PTSUNNY   79  50  36 W12       30.06F
6HR MIN TEMP:  76; 6HR MAX TEMP:  88; 6HR PCP: TRACE;

$$

  *****  SOME WEATHER IN NEARBY STATES *****

CITY           SKY/WX    TMP DP  RH WIND       PRES   REMARKS
GLASGOW MT     MOSUNNY   87  55  33 SE5       30.04F
6HR MIN TEMP:  73; 6HR MAX TEMP:  92; 6HR PCP:  0.08;

GREAT FALLS MT MOSUNNY   91  34  13 E7        30.10F
6HR MIN TEMP:  78; 6HR MAX TEMP:  92;

CHEYENNE WY    MOSUNNY   76  45  33 SW12G21   30.29S
6HR MIN TEMP:  74; 6HR MAX TEMP:  79;

SCOTTSBLUFF NE MOSUNNY   89  36  15 E8        30.13F
6HR MIN TEMP:  86; 6HR MAX TEMP:  90;

OMAHA NE       MOSUNNY   82  60  47 E6        30.06F
6HR MIN TEMP:  79; 6HR MAX TEMP:  86;

DES MOINES IA  MOSUNNY   82  58  43 E6        30.05F
6HR MIN TEMP:  80; 6HR MAX TEMP:  85;

DAVENPORT IA   MOSUNNY   80  64  58 N3        30.07R
6HR MIN TEMP:  77; 6HR MAX TEMP:  82;

CHICAGO IL     PTSUNNY   73  56  54 S10       30.07S
6HR MIN TEMP:  73; 6HR MAX TEMP:  85; 6HR PCP:  0.15;

EAU CLAIRE WI  SUNNY     80  62  54 NE5       30.05R
6HR MIN TEMP:  78; 6HR MAX TEMP:  84; 6HR PCP: TRACE;

LA CROSSE WI   MOSUNNY   82  59  45 SW5       30.04F
6HR MIN TEMP:  82; 6HR MAX TEMP:  86;

$$

  *****  SOME NATIONAL WEATHER *****

CITY           SKY/WX    TMP DP  RH WIND       PRES   REMARKS
LA GUARDIA NY  CLOUDY    76  64  66 S12       30.18S
6HR MIN TEMP:  75; 6HR MAX TEMP:  84;

RALEIGH NC     DRIZZLE   65  62  90 NE8       30.10S FOG
6HR MIN TEMP:  65; 6HR MAX TEMP:  71; 6HR PCP:  0.71;

ATLANTA GA     MOCLDY    77  67  71 SE7       30.05R
6HR MIN TEMP:  75; 6HR MAX TEMP:  81;

NEW ORLEANS LA PTSUNNY   85  67  54 S7        29.96S
6HR MIN TEMP:  84; 6HR MAX TEMP:  89;

OKLAHOMA CITY  PTSUNNY   83  63  50 SE3       30.04F
6HR MIN TEMP:  80; 6HR MAX TEMP:  86;

ALBUQUERQUE NM PTSUNNY   80  55  42 E13       30.17F
6HR MIN TEMP:  74; 6HR MAX TEMP:  81;

SALT LAKE CITY MOSUNNY   89  47  23 NW13      30.07F
6HR MIN TEMP:  82; 6HR MAX TEMP:  91;

LOS ANGELES CA PTSUNNY   72  63  73 W14       29.88F
6HR MIN TEMP:  72; 6HR MAX TEMP:  77;

BOISE ID       MOSUNNY   96  42  15 N3        29.97F HX  92



USA.gov is the U.S. government's official web portal to all federal, state and local government web resources and services.